Columbus, OH

1:57 AM EDT on October 01, 2016 (GMT -0400)
Ohio State University

Weather History for KOSU - February, 2014

Change the Weather History Date:

Tuesday, February 25, 2014

  Actual Average Record
Temperature  
Mean Temperature 24 °F -  
Max Temperature 27 °F 40 °F 64 °F (2002)
Min Temperature 21 °F 26 °F 5 °F (2003)
Degree Days  
Heating Degree Days 41    
Moisture  
Dew Point 15 °F    
Average Humidity 69    
Maximum Humidity 81    
Minimum Humidity 58    
Precipitation  
Precipitation 0.00 in - - ()
Sea Level Pressure  
Sea Level Pressure 30.13 in    
Wind  
Wind Speed 10 mph (WNW)    
Max Wind Speed 18 mph    
Max Gust Speed 28 mph    
Visibility 9 miles    
Events Snow    
Averages and records for this station are not official NWS values.
T = Trace of Precipitation, MM = Missing Value Source: NWS Daily Summary

Daily Weather History Graph

Daily Weather History Graph

Search for Another Location

Airport or City:

Trip Planner

Search our weather history database for the weather conditions in past years. The results will help you decide how hot, cold, wet, or windy it might be!

Date:

Astronomy

Feb. 25, 2014 Rise Set
Actual Time 7:11 AM EST 6:19 PM EST
Civil Twilight 6:44 AM EST 6:47 PM EST
Nautical Twilight 6:12 AM EST 7:18 PM EST
Astronomical Twilight 5:41 AM EST 7:49 PM EST
Moon 4:05 AM EST (2/25) 2:24 PM EST (2/25)
Length of Visible Light 12h 02m
Length of Day
11h 08m
Waning Crescent, 18% of the Moon is Illuminated
Feb 25
Waning Crescent
Mar 1
New
Mar 8
First Quarter
Mar 16
Full
Mar 23
Last Quarter

Hourly Weather History & Observations

Time (EST) Temp. Windchill Dew Point Humidity Pressure Visibility Wind Dir Wind Speed Gust Speed Precip Events Conditions
12:53 AM 25.0 °F 14.8 °F 14.0 °F 63% 30.18 in 10.0 mi WNW 10.4 mph - N/A   Overcast
1:53 AM 24.1 °F 14.4 °F 14.0 °F 65% 30.17 in 10.0 mi NW 9.2 mph - N/A   Overcast
2:53 AM 24.1 °F 13.1 °F 12.9 °F 62% 30.16 in 10.0 mi NW 11.5 mph - N/A   Overcast
3:53 AM 23.0 °F 13.1 °F 12.0 °F 63% 30.16 in 10.0 mi NW 9.2 mph - N/A   Overcast
4:53 AM 23.0 °F 13.1 °F 10.0 °F 58% 30.17 in 10.0 mi NW 9.2 mph - N/A   Overcast
5:30 AM 21.9 °F 11.0 °F 12.9 °F 68% 30.15 in 2.5 mi WNW 10.4 mph - 0.00 in Snow Light Snow
5:39 AM 21.9 °F 12.5 °F 12.9 °F 68% 30.14 in 4.0 mi WNW 8.1 mph - 0.00 in Snow Light Snow
5:53 AM 21.0 °F 12.4 °F 14.0 °F 74% 30.18 in 2.0 mi WNW 6.9 mph - 0.00 in Snow Light Snow
6:07 AM 21.0 °F 10.6 °F 15.1 °F 78% 30.14 in 3.0 mi WNW 9.2 mph - 0.00 in Snow Light Snow
6:53 AM 21.0 °F 14.6 °F 16.0 °F 81% 30.17 in 5.0 mi WNW 4.6 mph - 0.00 in Snow Light Snow
7:53 AM 21.0 °F 11.4 °F 15.1 °F 78% 30.18 in 10.0 mi West 8.1 mph - 0.00 in   Overcast
8:43 AM 21.9 °F 13.4 °F 15.1 °F 75% 30.16 in 10.0 mi West 6.9 mph - N/A   Overcast
8:53 AM 21.9 °F 11.7 °F 15.1 °F 75% 30.20 in 10.0 mi WNW 9.2 mph - N/A   Overcast
9:08 AM 21.9 °F 12.5 °F 15.1 °F 75% 30.16 in 10.0 mi WNW 8.1 mph - N/A   Mostly Cloudy
9:17 AM 23.0 °F 12.4 °F 15.1 °F 72% 30.16 in 10.0 mi West 10.4 mph - N/A   Mostly Cloudy
9:53 AM 23.0 °F 13.1 °F 15.1 °F 72% 30.19 in 10.0 mi West 9.2 mph - N/A   Overcast
10:53 AM 24.1 °F 15.2 °F 14.0 °F 65% 30.19 in 10.0 mi WNW 8.1 mph - N/A   Overcast
11:53 AM 26.1 °F 16.2 °F 12.9 °F 58% 30.18 in 10.0 mi West 10.4 mph - N/A   Overcast
12:11 PM 25.0 °F 17.1 °F 12.9 °F 60% 30.14 in 10.0 mi WNW 6.9 mph - N/A   Overcast
12:53 PM 26.1 °F 15.6 °F 12.9 °F 58% 30.17 in 10.0 mi West 11.5 mph - N/A   Overcast
1:53 PM 26.1 °F 15.0 °F 14.0 °F 60% 30.14 in 10.0 mi West 12.7 mph - N/A   Overcast
2:53 PM 26.1 °F 16.2 °F 14.0 °F 60% 30.13 in 10.0 mi West 10.4 mph - N/A   Overcast
3:53 PM 27.0 °F 17.3 °F 14.0 °F 58% 30.12 in 10.0 mi West 10.4 mph - N/A   Overcast
4:53 PM 26.1 °F 15.6 °F 15.1 °F 63% 30.12 in 10.0 mi West 11.5 mph - N/A   Overcast
5:15 PM 26.1 °F 15.0 °F 16.0 °F 66% 30.08 in 2.5 mi West 12.7 mph - 0.00 in Snow Light Snow
5:43 PM 25.0 °F 14.2 °F 19.0 °F 78% 30.07 in 3.0 mi West 11.5 mph - 0.00 in Snow Light Snow
5:53 PM 25.0 °F 13.6 °F 19.0 °F 78% 30.12 in 9.0 mi West 12.7 mph - 0.00 in   Overcast
6:53 PM 25.0 °F 14.8 °F 18.0 °F 75% 30.11 in 10.0 mi WNW 10.4 mph - N/A   Overcast
7:00 PM 25.0 °F 14.2 °F 18.0 °F 75% 30.06 in 10.0 mi WNW 11.5 mph - N/A   Overcast
7:53 PM 24.1 °F 13.1 °F 17.1 °F 75% 30.10 in 10.0 mi West 11.5 mph - N/A   Mostly Cloudy
8:53 PM 23.0 °F 11.7 °F 16.0 °F 74% 30.08 in 10.0 mi West 11.5 mph - N/A   Mostly Cloudy
9:53 PM 23.0 °F 11.1 °F 16.0 °F 74% 30.09 in 10.0 mi West 12.7 mph - N/A   Scattered Clouds
10:53 PM 23.0 °F 13.9 °F 16.0 °F 74% 30.07 in 10.0 mi West 8.1 mph - N/A   Mostly Cloudy
11:11 PM 23.0 °F 11.1 °F 14.0 °F 68% 30.03 in 10.0 mi West 12.7 mph 20.7 mph N/A   Mostly Cloudy
11:41 PM 23.0 °F 8.7 °F 14.0 °F 68% 30.03 in 10.0 mi West 18.4 mph - N/A   Overcast
11:53 PM 23.0 °F 9.6 °F 14.0 °F 68% 30.06 in 9.0 mi West 16.1 mph 27.6 mph 0.00 in Snow Light Snow